Location: Isle of Man Observatory
(54.1776°N, 4.6264°W)
Time: 20:47:17
(UTC+01:00)

Envisat - Visible Passes

Search period start: 18 January 2018 00:00
Search period end: 28 January 2018 00:00
Orbit: 764 x 766 km, 98.2° (Epoch: 18 January)

Date Brightness Start Highest point End Pass type
(mag) Time Alt. Az. Time Alt. Az. Time Alt. Az.
18 Jan 3.9 19:22:36 25° E 19:23:54 28° ENE 19:28:09 10° N visible
18 Jan 3.4 21:02:47 61° W 21:02:47 61° W 21:07:41 10° NNW visible
18 Jan 6.0 22:42:58 11° WNW 22:42:58 11° WNW 22:44:02 10° WNW visible
19 Jan 4.5 18:45:13 12° E 18:47:37 17° NE 18:50:46 10° NNE visible
19 Jan 2.8 20:25:25 68° ESE 20:25:51 73° ENE 20:30:58 10° NNW visible
19 Jan 5.2 22:05:35 21° W 22:05:35 21° W 22:09:16 10° NW visible
20 Jan 5.8 08:24:00 10° NE 08:27:05 16° E 08:30:08 10° ESE visible
20 Jan 3.4 19:48:01 34° E 19:49:17 40° ENE 19:54:02 10° N visible
20 Jan 4.2 21:28:12 39° W 21:28:21 39° W 21:33:08 10° NNW visible
21 Jan 4.1 19:10:36 18° E 19:12:53 24° NE 19:16:52 10° N visible
21 Jan 3.1 20:50:47 64° SSW 20:51:27 74° WSW 20:56:34 10° NNW visible
21 Jan 5.7 22:30:59 13° W 22:31:25 13° W 22:33:53 10° NW visible
22 Jan 4.6 18:33:59 10° E 18:36:39 14° NE 18:39:19 10° NNE visible
22 Jan 2.9 20:13:23 44° SE 20:14:45 61° ENE 20:19:47 10° N visible
22 Jan 4.9 21:53:34 25° WSW 21:54:11 25° W 21:58:23 10° NW visible
23 Jan 6.0 08:13:26 10° NE 08:15:46 13° E 08:18:06 10° ESE visible
23 Jan 3.6 19:35:58 23° ESE 19:38:14 34° ENE 19:42:48 10° N visible
23 Jan 3.9 21:16:09 41° SW 21:17:09 47° W 21:22:04 10° NNW visible
24 Jan 4.2 18:58:32 11° E 19:01:52 21° NE 19:05:33 10° N visible
24 Jan 2.9 20:38:43 46° SSE 20:40:19 87° WSW 20:45:27 10° NNW visible
24 Jan 5.5 22:18:54 15° WSW 22:20:07 16° W 22:23:16 10° NW visible
25 Jan 4.7 18:23:37 10° ENE 18:25:42 12° NE 18:27:46 10° NNE visible
25 Jan 3.1 20:01:17 28° SE 20:03:39 51° ENE 20:08:35 10° N visible
25 Jan 4.7 21:41:28 26° WSW 21:42:56 30° W 21:47:25 10° NNW visible
26 Jan 6.3 08:03:26 10° ENE 08:04:27 10° E 08:05:27 10° E visible
26 Jan 3.8 19:23:50 15° ESE 19:27:11 29° ENE 19:31:32 10° N visible
26 Jan 3.5 21:04:01 35° SSW 21:05:58 57° W 21:11:00 10° NNW visible
27 Jan 4.4 18:47:34 10° E 18:50:53 18° NE 18:54:12 10° N visible
27 Jan 2.8 20:26:35 30° SSE 20:29:11 79° ENE 20:34:18 10° NNW visible
27 Jan 5.3 22:06:45 16° WSW 22:08:49 20° W 22:12:30 10° NW visible
